Погода в Дургапуре

Индия     23°31′56″N   87°18′26″E
темп.,
°C
ветер,
м/с
пор.,
м/с
влажн.,
%
обл.,
%
осадки,
мм/ч
давл.,
гПа
погр.,
м
23 июня, ср
ср2323:30+28ююз367968 0.6 1003217
02:30+28ю2382100 0.0 1002129
05:30+27ююв3584100 0.0 1003211
08:30+31ююв346559 0.3 1004811
11:30+34ю445246 0.8 10031652
14:30+34ююз5451100 0.1 10011597
17:30+32ю465896 0.1 1001635
20:30+30ююв5969100 0.3 1003420
24 июня, чт
чт2423:30+28ю4879100 0.3 1003317
02:30+27ююв368434 0.1 1001278
05:30+27ю368391 0.1 1002238
08:30+32ююз456181 0.0 1003774
11:30+35ююз444782 0.0 10022032
14:30+34юз445294 0.6 10001222
17:30+32ююз2459100 0.6 999201
20:30+31ююв596695 0.0 1000362
25 июня, пт
пт2523:30+29ю49745 0.0 1000328
02:30+28ю368074 0.0 999260
05:30+28ююз2578100 0.0 1000368
08:30+32юз33584 0.0 1001792
11:30+35ю434847 0.0 9991757
14:30+34ююз4451100 0.6 9981482
17:30+33ю345771 0.7 998750
20:30+30ююв487256 0.1 1000342
26 июня, сб
сб2623:30+28ююв498040 0.1 1001478
02:30+27юв48835 0.0 999388
05:30+27юв488548 0.0 1001402
08:30+31ююв5665100 0.0 1002934
11:30+34юв5552100 0.0 10011745
14:30+34ююв5551100 0.2 10001848
17:30+32юв5762100 0.6 1000705
20:30+30ююв596745 0.1 1002562
27 июня, вс
вс2723:30+28ю4978100 0.1 1003581
02:30+27ююв378514 0.0 1002445
05:30+27юв368866 0.0 1003307
08:30+31ююв4466100 0.0 10041023
11:30+34ююв445098 0.1 10031776
14:30+36юв4445100 0.0 10002175
17:30+32ююв5860100 0.0 1001447
20:30+31ююв4864100 0.0 1002476